Regional Weather Roundup
Issued by NWS Albany, NY

Home | Current Version | Previous Version | Graphics & Text | Print | Product List | Glossary On
Versions: 1 2 3 4 5 6 7 8 9 10 11 12 13 14 15 16 17 18 19 20 21 22 23 24 25 26 27 28 29 30 31 32 33 34 35 36 37 38 39 40 41 42 43 44 45 46 47 48 49 50
000
ASUS41 KALY 282010
RWRALY

NEW YORK STATE HOURLY WEATHER ROUNDUP
NATIONAL WEATHER SERVICE ALBANY NY
300 PM EST SAT FEB 28 2015

NOTE: "FAIR" INDICATES FEW OR NO CLOUDS BELOW 12,000 FEET WITH NO
SIGNIFICANT WEATHER AND/OR NO OBSTRUCTIONS TO VISIBILITY.

NYZ032-033-038>043-046>054-057>066-NYZ062>081-282100-
EAST


CITY           SKY/WX    TMP DP  RH WIND       PRES   REMARKS
ALBANY         SUNNY     25   5  42 W8        30.74S WCI  16
GLENS FALLS    SUNNY     22   5  48 S13       30.71F WCI  10
POUGHKEEPSIE   SUNNY     27   2  34 CALM      30.74F
NEWBURGH       SUNNY     28   5  37 CALM      30.73F
MONTGOMERY     SUNNY     25  -3  29 S6        30.70F WCI  18
WHITE PLAINS   SUNNY     25   0  33 NW8       30.71F WCI  16
ISLIP          MOSUNNY   27   2  34 W7        30.73S WCI  19
NEW YORK CITY  MOSUNNY   28   2  32 NW3       30.76F
CENTRAL PARK   SUNNY     28   0  29 NW5       30.77F WCI  23
$$

NYZ005>009-017-018-044>046-055-056-282100-
CENTRAL


CITY           SKY/WX    TMP DP  RH WIND       PRES   REMARKS
FULTON         SUNNY     21   2  43 SW8       30.73F WCI  11
SYRACUSE       MOSUNNY   18   3  53 W12       30.75S WCI   5
ROME           SUNNY     20   4  50 W8        30.75F WCI  10
ELMIRA         SUNNY     23  -1  35 SW8       30.69F WCI  14
BINGHAMTON     SUNNY     19  -2  39 CALM      30.63F
MONTICELLO     SUNNY     23   1  39 W7        30.64F WCI  15
$$

NYZ026>034-041>043-282100-
NORTH


CITY           SKY/WX    TMP DP  RH WIND       PRES   REMARKS
WATERTOWN      SUNNY     21   9  59 SW17G23   30.73S WCI   7
FORT DRUM      NOT AVBL
MASSENA        SUNNY     23   4  44 SW20G29   30.69F WCI   8
SARANAC LAKE   SUNNY     20   0  41 SW7       30.54F WCI  11
PLATTSBURGH    SUNNY     20   3  48 SE16      30.66F WCI   6
$$

NYZ001>004-010>016-019>021-282100-
WEST


CITY           SKY/WX    TMP DP  RH WIND       PRES   REMARKS
NIAGARA FALLS  MOSUNNY   17   5  59 SW13      30.72F WCI   4
BUFFALO        MOSUNNY   17   4  56 SW10      30.72F WCI   5
DUNKIRK        SUNNY     17   2  51 W6        30.73F WCI   9
JAMESTOWN      SUNNY     19  -2  38 CALM      30.62F
WELLSVILLE     SUNNY     22  -8  26 VRB3      30.59F
ROCHESTER      MOSUNNY   22   4  46 SW10      30.72F WCI  11
PENN YAN       SUNNY     22   4  46 NE5       30.69F WCI  16
$$

             KEY
       WCI = WIND CHILL INDEX
       VSB = VISIBILITY
       HX  = HEAT INDEX
$$



USA.gov is the U.S. government's official web portal to all federal, state and local government web resources and services.